Regional Weather Roundup
Issued by NWS

Home | Current Version | Previous Version | Text Only | Print | Product List | Glossary Off
Versions: 1 2 3 4 5 6 7 8 9 10 11 12 13 14 15 16 17 18 19 20 21 22 23 24 25 26 27 28 29 30 31 32 33 34 35 36 37 38 39 40 41 42 43 44 45 46 47 48 49 50

000
ASUS45 KBOU 122110
RWRCO

WEATHER ROUNDUP FOR COLORADO
NATIONAL WEATHER SERVICE DENVER/BOULDER CO
300 PM MDT SAT JUL 12 2014

NOTE: "FAIR" INDICATES FEW OR NO CLOUDS BELOW 12000 FEET WITH NO
SIGNIFICANT WEATHER AND/OR OBSTRUCTIONS TO VISIBILITY.

COZ001>005-013-030-031-122200-
...NORTHWEST COLORADO...

CITY           SKY/WX    TMP DP  RH WIND       PRES   REMARKS
CRAIG          MOSUNNY   78  53  41 W7        30.30F
HAYDEN         MOSUNNY   79  48  34 W7        30.32F
MEEKER         PTSUNNY   83  53  35 NE8       30.30S
MOUNT WERNER   NOT AVBL
STEAMBOAT SPGS MOSUNNY   76  51  40 CALM      30.34F
WALDEN         PTSUNNY   64  57  77 NW12      30.46S
$$

COZ006>008-011-122200-
...WEST CENTRAL VALLEYS...

CITY           SKY/WX    TMP DP  RH WIND       PRES   REMARKS
GRAND JUNCTION MOSUNNY   94  46  19 W13       30.13F
MONTROSE       MOSUNNY   91  43  18 N13       30.22F
EAGLE          MOSUNNY   82  50  32 CALM      30.30F
RIFLE          MOSUNNY   87  50  27 NE6       30.20F
DELTA          PTSUNNY   92  47  21 E9        30.16R
NUCLA          MOSUNNY   91  41  17 W12G22    30.25F
$$

COZ017>023-064>068-122200-
...SOUTHWEST COLORADO...

CITY           SKY/WX    TMP DP  RH WIND       PRES   REMARKS
DURANGO        PTSUNNY   79  53  40 N18       30.31S THUNDER
CORTEZ         MOSUNNY   88  47  24 VRB5      30.22F
PAGOSA SPRINGS PTSUNNY   69  46  43 N10G23    30.40R
TELLURIDE      CLOUDY    72  46  40 NE5       30.48S
WOLF CREEK PAS NOT AVBL
$$

COZ009-010-012-014-032>034-037-058>063-122200-
...CENTRAL COLORADO...

CITY           SKY/WX    TMP DP  RH WIND       PRES   REMARKS
ASPEN          MOSUNNY   81  44  27 NW12G17   30.37F
BUENA VISTA    LGT RAIN  73  48  41 E9        30.39R
COPPER MTN     PTSUNNY   61  34  36 W21G28    30.73F
BERTHOUD PASS  CLOUDY    52  36  54 N5        30.79S
COTTONWOOD PAS CLOUDY    66  45  45 CALM      30.56R
GUNNISON       MOSUNNY   77  46  33 SW9       30.38F
KREMMLING      CLOUDY    72  52  49 S12       30.39F
LEADVILLE      MOSUNNY   70  39  32 NW13G21   30.52F
MONARCH PASS   PTSUNNY   54  39  58 NE7       30.83S
SALIDA         NOT AVBL
SUNLIGHT       MOSUNNY   66  46  48 NW8       30.66S
WILKERSON PASS CLOUDY    55  50  82 NE8G20    30.68S THUNDER
$$

COZ069>075-122200-
...SAN LUIS VALLEY/SANGRE DE CRISTO MOUNTAINS...

CITY           SKY/WX    TMP DP  RH WIND       PRES   REMARKS
ALAMOSA        MOSUNNY   85  39  19 E10       30.33F
LA VETA PASS   CLOUDY    57  41  54 SW8       30.60R THUNDER
SAGUACHE       NOT AVBL
$$

COZ035-036-038>040-122200-
...NORTHERN COLORADO FRONT RANGE...

CITY           SKY/WX    TMP DP  RH WIND       PRES   REMARKS
DENVER INTL AP PTSUNNY   80  57  45 N8        30.26F
DMNS CITY PARK   N/A     79  58  48 SW3       30.27S
AURORA         NOT AVBL
FRONT RANGE AP NOT AVBL
ERIE MUNI ARPT PTSUNNY   81  53  38 CALM      30.24F
BOULDER MUN AP PTSUNNY   82  55  39 CALM      30.25F
CENTENNIAL     PTSUNNY   78  57  48 N10       30.30F
BROOMFIELD     PTSUNNY   81  57  44 VRB5      30.29F
FORT COLLINS   MOSUNNY   79  61  53 N13G18    30.26R
LONGMONT       MOSUNNY   85  54  34 CALM      30.26S
$$

COZ041-046-047-076>085-087-088-122200-
...PIKES PEAK/PALMER DIVIDE AND SOUTHERN FOOTHILLS...

CITY           SKY/WX    TMP DP  RH WIND       PRES   REMARKS
COLO. SPRINGS  PTSUNNY   67  60  78 N13       30.29S THUNDER
A. F. ACADEMY  NOT AVBL
ELLICOTT       NOT AVBL
FALCON         DRIZZLE   67  62  81 N12       30.36F
FORT CARSON    NOT AVBL
LIMON          PTSUNNY   85  58  39 N20G25    30.25S
MONUMENT HILL  PTSUNNY   70  52  52 NE7       30.38S
TRINIDAD       MOSUNNY   94  43  17 NE8G17    30.18F
$$

COZ042>045-048>051-090-091-122200-
...NORTHEAST COLORADO...

CITY           SKY/WX    TMP DP  RH WIND       PRES   REMARKS
GREELEY ARPT   NOT AVBL
AKRON          SUNNY     80  60  50 N10       30.22F
BURLINGTON     MOSUNNY   83  63  50 N14G25    30.17F
WRAY           MOSUNNY   85  64  48 N8G16     30.16F
STERLING       SUNNY     84  64  51 NE9       30.17F
HOLYOKE        PTSUNNY   86  63  45 N13       30.16F
FORT MORGAN    SUNNY     86  56  36 N10G18    30.22S
$$

COZ086-089-092>099-122200-
...SOUTHEAST COLORADO...

CITY           SKY/WX    TMP DP  RH WIND       PRES   REMARKS
PUEBLO         MOSUNNY   90  56  31 SE9G16    30.13F
LA JUNTA       SUNNY     94  54  25 VRB7      30.10F
LAMAR          MOSUNNY   96  58  27 MISG      30.06F
SPRINGFIELD      N/A     94  52  24 S8        30.10F
$$


USA.gov is the U.S. government's official web portal to all federal, state and local government web resources and services.